{"data":{"norad_id":64522,"epoch":"2026-05-25T00:13:17.897952Z","epoch_age_seconds":77688,"freshness":"FRESH","line1":"1 64522U 25134Y   26145.00923493  .00002792  00000+0  39510-3 0  9992","line2":"2 64522  51.8961 253.1101 0000343  99.9585 260.1416 14.79933772 51412","mean_motion":14.79933772,"eccentricity":3.43e-5,"inclination_deg":51.8961,"raan_deg":253.1101,"arg_perigee_deg":99.9585,"mean_anomaly_deg":260.1416,"bstar":0.0003951,"rev_number":5141,"period_min":97.301651414709,"perigee_km":629.29282907576,"apogee_km":629.77355525095,"semimajor_km":7007.6701921634,"source":"CELESTRAK","updated_at":"2026-05-25T13:38:04.577734Z"}}